Theta_e
304 305 305 305 305 305 305 305 305 305 306 306 306 307 306 305 305 305 304 304 304 306 307 307 308 308 308 310 310 311 313 313 313 316 315 315 314 312 311 311 310 310 309
305 305 305 305 306 306 306 306 306 306 306 306 306 307 306 305 305 305 304 306 306 307 306 306 307 307 308 308 309 310 312 313 313 315 312 311 310 310 309 308 307 307 307
305 305 305 306 307 306 305 306 306 305 306 306 307 306 306 305 305 305 304 305 305 306 306 306 306 306 306 306 307 309 310 313 313 313 311 311 308 308 308 308 307 306 306
306 305 305 306 306 306 306 306 306 306 305 306 307 307 307 306 305 305 305 304 304 304 304 304 304 305 305 306 306 307 308 311 312 314 311 309 308 308 309 307 306 306 306
305 305 306 306 306 305 306 306 306 307 306 306 306 306 305 304 304 305 305 305 304 304 304 304 303 303 303 305 306 306 308 309 312 312 311 308 308 308 308 308 307 306 306
305 305 305 305 305 306 306 307 306 306 307 307 306 306 305 304 304 304 305 306 305 304 304 304 303 302 302 302 305 306 307 308 311 311 310 309 308 309 309 308 307 306 305
305 305 305 305 306 305 306 306 306 306 306 307 306 305 304 304 304 304 305 306 305 304 304 304 303 302 302 302 304 307 307 309 309 311 311 310 309 310 310 308 308 307 306
305 305 304 305 304 305 305 305 306 305 306 307 305 305 304 304 303 304 305 305 305 304 304 303 302 302 302 302 304 307 308 309 310 312 312 312 311 311 310 309 307 307 306
305 304 304 304 305 304 304 304 304 305 305 305 305 304 304 303 304 303 303 305 305 305 303 302 301 302 303 304 307 308 309 309 311 312 312 311 311 310 309 308 308 307 306
305 305 304 304 304 305 304 304 303 305 305 305 305 303 303 303 304 303 303 303 304 303 302 302 302 302 304 306 307 308 310 310 311 310 310 310 310 309 308 308 308 308 308
305 304 305 305 305 305 304 303 302 302 303 302 302 302 301 302 302 302 302 302 302 302 301 302 302 303 305 306 307 308 309 309 309 310 310 310 310 310 310 309 309 309 308
303 304 304 305 305 304 303 302 301 301 301 301 302 301 301 300 301 302 301 300 302 301 302 302 302 304 306 306 307 307 308 309 310 310 309 309 309 309 309 309 308 309 308
303 303 304 304 305 304 303 302 301 301 301 301 301 301 300 300 300 301 300 302 301 302 302 303 304 305 306 306 307 308 308 309 308 309 308 308 308 308 309 309 308 307 304
303 304 304 304 304 303 302 300 300 300 301 300 300 300 299 300 300 300 301 302 301 302 303 304 305 305 306 307 307 308 309 309 309 308 308 308 308 307 307 306 305 302 300
303 303 302 302 301 301 300 300 300 300 299 299 299 299 299 300 300 300 300 301 302 302 304 305 306 306 307 307 307 307 307 307 308 308 308 308 307 306 306 305 305 306 304
303 302 302 301 301 301 300 299 299 300 299 299 300 300 299 299 300 300 301 302 302 304 305 305 306 306 307 307 307 307 307 307 307 307 307 307 306 306 306 306 302 301 300
303 302 301 301 300 300 300 300 301 300 300 301 301 301 301 301 301 302 302 303 304 305 305 305 305 306 306 307 307 307 307 306 306 307 306 304 304 304 305 304 303 302 302
301 300 299 299 300 301 301 302 302 302 301 302 302 302 302 302 302 303 304 305 304 305 305 306 306 306 307 307 307 307 306 306 306 306 304 300 299 299 299 300 302 303 303
301 301 301 301 302 302 303 303 303 303 303 303 303 303 303 301 302 303 304 305 306 306 306 307 307 308 308 308 308 308 308 307 304 301 300 300 301 300 300 300 300 301 301
303 303 303 303 304 304 305 305 305 304 304 305 305 305 305 305 305 306 306 307 307 307 308 309 309 309 309 309 309 309 307 303 303 304 305 306 306 306 307 306 306 306 306
305 304 304 305 305 305 305 305 305 305 305 305 305 306 306 307 307 307 308 308 308 308 309 310 310 310 310 309 308 306 304 306 307 307 306 306 307 307 308 308 308 308 308
305 304 304 304 305 306 306 306 307 307 307 307 307 307 308 308 309 308 308 309 309 309 309 309 308 308 307 305 304 304 305 306 306 306 307 307 308 308 308 308 308 308 308
305 306 306 305 304 304 305 306 307 308 308 308 308 308 308 309 309 309 309 310 310 310 310 309 308 306 305 305 305 306 307 307 308 308 308 308 308 308 308 309 308 308 308
304 306 307 307 306 306 305 305 308 308 308 307 308 308 308 309 309 310 310 310 309 309 308 307 306 307 307 308 308 309 309 309 309 308 308 308 308 307 307 307 307 308 307
304 306 306 305 306 306 305 305 306 306 307 307 307 307 307 307 307 307 307 308 308 308 309 309 309 308 308 308 308 308 308 308 308 308 308 308 307 306 305 305 304 304 304
303 304 305 306 306 307 307 305 304 305 305 306 306 306 306 306 306 307 307 307 308 308 308 308 308 308 308 308 308 307 307 307 307 306 306 305 305 303 301 300 299 299 299
Wind_Speed
16 15 16 15 13 12 12 13 14 13 15 14 11 15 14 16 15 17 18 17 14 12 13 10 9 8 11 11 11 13 13 7 13 4 14 7 11 13 13 10 10 11 10
12 11 11 12 13 13 12 12 13 13 14 13 12 13 13 15 11 15 20 19 14 11 15 14 14 12 12 12 11 11 11 4 8 7 16 14 16 13 14 12 14 13 13
8 10 11 11 14 14 13 12 12 13 11 10 11 12 11 14 14 12 15 16 17 15 13 14 15 15 15 15 14 11 10 8 8 14 14 12 16 14 15 13 13 14 14
10 11 12 13 14 15 13 13 13 13 12 10 11 11 10 14 13 9 11 12 12 13 14 14 16 17 17 14 14 12 10 6 6 1 17 19 20 18 12 12 13 13 15
11 12 13 13 15 17 14 13 13 12 12 12 12 11 11 13 11 9 10 10 11 12 13 15 17 18 16 14 15 13 9 4 5 0 14 21 21 19 15 8 12 12 14
11 12 14 15 16 16 13 13 13 13 11 9 12 10 11 12 11 9 11 12 10 10 13 19 19 20 15 12 11 13 9 2 3 5 12 19 19 16 11 9 9 7 12
9 12 15 16 16 15 13 13 14 13 11 10 11 11 12 12 11 11 10 8 11 10 15 22 25 21 15 9 8 10 5 2 6 3 9 17 17 12 7 9 7 8 13
9 12 14 16 18 17 15 15 15 14 11 7 9 13 10 13 14 12 10 5 8 8 16 23 25 21 13 8 8 8 4 4 7 4 9 4 11 8 8 8 6 7 10
11 14 14 15 17 17 16 16 14 12 12 10 11 14 12 15 12 11 11 8 10 7 19 20 19 17 13 10 9 7 7 9 9 10 10 12 12 13 9 7 7 4 9
14 14 12 13 15 17 16 18 16 11 11 10 10 15 16 15 12 8 9 8 6 11 14 14 13 14 12 11 9 10 17 17 15 16 17 16 14 11 9 7 4 4 5
16 13 10 11 13 16 16 16 14 13 13 14 12 11 15 14 8 7 6 7 9 10 12 8 11 14 12 11 9 11 16 18 21 21 18 13 9 6 6 3 1 4 5
14 8 7 9 12 13 14 15 14 12 10 11 10 12 13 12 7 4 8 7 7 10 9 11 12 13 13 11 11 13 16 20 20 17 14 12 10 9 7 4 4 4 8
13 12 10 9 11 11 14 15 14 10 12 13 15 13 12 11 8 5 4 7 8 9 12 12 12 13 14 14 16 17 16 19 15 10 12 13 13 10 8 9 12 16 22
13 10 9 9 11 14 14 15 15 15 15 15 16 12 8 10 10 9 8 7 9 13 12 13 14 16 15 16 16 14 15 12 10 8 12 14 13 14 15 17 21 25 25
11 10 9 11 13 14 13 13 13 12 16 17 16 13 11 9 10 8 8 10 15 14 14 16 19 18 18 17 17 15 13 12 14 14 13 13 15 16 18 20 22 23 25
9 9 11 13 10 12 12 12 10 12 13 19 20 19 18 15 13 13 17 18 17 15 17 20 21 20 19 17 16 16 16 16 16 17 18 19 22 25 25 24 23 23 23
7 12 11 9 10 12 11 12 12 13 15 22 20 23 22 19 19 21 20 19 18 18 21 21 19 17 16 16 16 17 19 19 20 24 26 25 23 23 20 20 19 18 17
12 18 17 14 16 15 14 15 17 19 20 21 20 16 17 18 20 21 20 20 20 20 20 21 20 18 18 19 20 22 24 23 25 26 23 22 22 21 20 20 18 16 15
16 16 17 17 15 15 16 18 19 21 22 20 19 19 20 20 20 22 22 24 24 23 21 20 19 18 20 21 22 23 24 27 26 25 28 28 26 24 23 21 18 17 17
19 18 17 18 18 19 19 19 19 20 21 23 22 22 23 26 29 28 27 25 24 24 24 24 25 25 25 25 25 27 28 26 28 27 25 23 21 18 16 14 12 11 10
23 21 21 21 20 18 18 18 19 18 20 24 26 26 27 30 28 26 26 27 27 26 26 25 26 24 23 25 26 26 27 26 24 21 19 17 15 13 11 10 9 8 7
26 30 28 26 22 21 21 22 23 22 23 25 28 27 27 27 27 27 26 27 29 29 28 28 26 25 24 25 24 23 22 19 17 16 16 16 15 16 15 12 12 12 11
23 25 27 29 34 32 29 26 25 26 25 28 26 25 26 25 25 25 25 24 25 24 23 23 24 25 24 23 21 19 17 16 15 16 16 16 16 16 15 12 8 5 4
18 19 25 24 24 26 26 27 25 28 26 26 26 25 25 24 24 25 24 22 22 24 25 26 24 23 21 19 17 16 15 15 14 13 12 11 12 14 14 13 10 8 4
16 18 19 20 22 20 21 24 27 28 26 25 26 26 27 27 27 27 27 26 23 23 22 21 20 20 19 18 17 17 17 16 15 15 14 13 11 11 12 13 11 8 8
13 14 16 17 18 20 20 22 21 21 22 22 23 24 24 25 24 23 22 21 21 21 20 18 17 16 14 14 16 16 14 14 14 14 14 11 12 14 14 14 14 14 12
Wind_Direction
330 334 334 340 354 2 356 346 341 342 345 346 347 348 355 350 356 1 4 356 347 355 359 4 351 331 325 336 330 337 343 323 335 255 168 174 166 152 145 132 108 110 105
349 358 18 12 1 355 348 344 337 340 341 342 343 347 351 353 357 3 7 9 15 2 4 2 1 5 358 346 338 339 351 13 340 157 162 167 146 148 137 121 101 90 83
34 11 2 3 360 357 353 351 351 344 344 344 336 341 349 355 0 0 7 11 19 18 16 21 9 5 1 0 354 344 346 2 18 158 156 161 148 135 119 105 84 78 69
15 5 6 8 10 2 353 352 350 357 355 343 335 341 345 346 351 360 352 5 7 12 11 10 1 6 8 359 349 345 347 347 17 351 172 160 142 130 117 118 96 80 71
12 20 18 11 5 356 355 357 359 353 350 351 351 347 346 340 340 350 328 338 352 349 350 352 350 349 349 353 356 353 350 13 45 232 175 153 145 140 136 134 107 90 76
17 18 13 10 3 5 10 10 4 359 355 2 355 353 349 348 343 325 316 318 327 327 345 350 347 342 340 341 349 349 345 56 107 151 177 162 160 156 137 147 119 93 79
26 24 13 6 1 359 356 353 358 1 2 2 355 346 340 344 342 336 333 317 316 317 337 342 344 345 341 339 340 354 351 54 158 157 201 191 172 163 142 136 86 94 90
21 3 1 5 1 355 356 356 353 351 356 349 340 336 345 347 348 350 353 337 317 326 331 340 343 348 354 356 356 6 22 100 134 133 145 181 173 139 138 135 119 116 87
352 351 356 344 349 356 358 353 341 334 339 330 323 326 325 322 330 343 350 335 299 314 333 342 352 3 16 22 23 28 88 114 122 117 134 138 149 147 148 142 140 122 88
343 341 335 331 347 348 344 342 337 328 329 323 319 316 309 307 302 333 340 343 334 322 335 354 9 18 21 36 52 99 115 121 124 122 128 137 137 144 137 129 84 32 95
321 325 320 331 343 341 339 345 345 328 319 318 323 332 326 304 323 319 338 341 338 348 347 23 28 32 53 65 84 118 119 125 125 124 124 129 134 134 149 162 286 333 327
349 324 324 336 336 338 350 352 348 347 352 360 357 349 6 10 2 353 357 7 21 16 37 47 36 39 73 78 86 105 118 119 116 115 110 109 110 114 118 125 86 76 96
1 343 334 331 331 345 352 356 358 5 12 15 10 9 13 25 38 43 42 49 37 42 66 49 51 69 80 88 102 104 107 109 125 108 88 91 95 99 100 104 111 108 105
358 357 1 354 352 343 352 355 5 14 14 9 1 12 27 60 61 58 69 51 48 82 74 64 71 83 90 102 107 106 115 109 93 82 102 90 85 96 101 110 113 111 107
1 9 11 354 347 356 356 357 2 18 22 14 27 39 56 65 49 68 76 75 91 93 81 85 89 91 89 88 84 81 83 93 99 96 93 98 103 102 103 109 105 102 100
0 7 356 350 2 3 10 5 34 39 41 68 34 37 55 62 73 84 96 97 95 90 89 89 86 85 83 79 77 82 82 87 92 101 99 98 99 100 103 106 103 100 99
355 348 351 10 12 16 45 61 52 57 71 67 51 56 59 75 83 90 92 91 93 92 87 85 83 82 80 81 83 85 88 90 95 99 100 101 100 98 101 98 97 96 95
55 57 51 63 64 57 58 62 69 75 65 57 68 73 67 78 86 93 93 98 93 84 80 81 82 80 78 82 88 90 93 98 99 102 101 93 91 89 89 88 90 91 92
57 55 63 65 62 69 71 74 79 77 72 67 72 78 76 80 93 94 90 85 85 81 78 75 72 76 83 88 89 97 98 103 103 97 94 90 87 85 86 85 85 87 91
61 65 71 75 76 79 78 76 77 82 70 72 76 80 85 88 87 87 86 83 79 77 79 81 82 84 84 84 89 98 105 100 101 99 95 89 82 77 75 76 79 83 83
58 67 73 78 78 74 72 69 74 78 74 77 79 84 87 86 84 81 80 82 83 81 83 84 89 94 91 91 96 102 106 105 101 93 82 73 65 59 65 79 78 73 82
70 72 73 76 78 78 76 75 78 83 87 86 88 86 86 82 82 82 81 81 87 85 83 84 85 87 91 97 101 104 103 98 89 77 64 60 57 58 62 75 65 59 64
67 67 78 78 73 76 76 80 83 88 93 95 92 89 88 84 80 81 84 90 86 80 79 81 85 86 87 90 92 90 84 74 64 61 58 54 53 49 44 45 65 76 57
53 77 85 81 72 64 66 76 86 93 95 94 92 88 84 83 82 80 82 81 77 80 83 82 82 79 77 74 69 62 57 55 55 52 43 43 50 44 38 34 38 42 100
75 84 71 67 70 77 82 91 85 87 87 88 92 89 88 88 88 86 87 82 79 80 80 78 76 73 70 67 64 57 54 51 48 44 44 37 39 38 33 36 48 68 82
78 75 77 78 70 76 84 90 93 89 88 89 93 92 92 88 86 86 85 82 79 76 74 70 65 59 56 56 55 55 51 43 41 37 32 38 40 40 38 46 58 70 75